Ana Sayfa
METAR-TAF:

METAR-TAF

Havaalanları :

South Jersey Regional Airport

Mount Holly, New Jersey, Amerika Birleşik Devletleri

Enlem: 39-56-26N, Boylam: 074-50-28W, yükseklik: 16 m

Güncel hava durumu gözlemi

Rapor saat 03:54 UTC de 55 dakika önce yapıldı.
Sakin rüzgar
Sıcaklık 19°C
Nem 88%
Basınç 1018 hPa
Görüş mesafesi: 16.1 km
Açık gökyüzü

METAR: KVAY 160354Z AUTO 00000KT 10SM CLR 19/17 A3007 RMK AO2 SLP180 T01940167 $

Saat: 00:49 (04:49 UTC)


TAF: eksik

4.000'den fazla havaalanı için hava durumu gözlemleri ve tahminleri (METAR ve TAF raporları).

Kullanılabilir istasyonlar harita üzerinde sarı ve kırmızı noktalarla gösterilir.

İstasyonun adını görmek için fareyi noktanın üzerinde gezdirin.

Sonrasında hava gözlem ve tahminlerini görmek için tıklayın.

Haritayı değiştirmek için: yaklaştırmak için siyah artı işaretli yeşil düğmeye ve uzaklaştırmak için de eksi işaretli düğmeye hızla tıklayın; bitişik haritalar için yeşil okları kullanın.


METAR-TAF: